Regional Weather Roundup
Issued by NWS Little Rock, AR

Home | Current Version | Previous Version | Graphics & Text | Print | Product List | Glossary On
Versions: 1 2 3 4 5 6 7 8 9 10 11 12 13 14 15 16 17 18 19 20 21 22 23 24 25 26 27 28 29 30 31 32 33 34 35 36 37 38 39 40 41 42 43 44 45 46 47 48 49 50
000
ASUS44 KLZK 061605
RWRLZK

WEATHER ROUNDUP FOR ARKANSAS
NATIONAL WEATHER SERVICE LITTLE ROCK AR
1000 AM CST TUE DEC 06 2016

NOTE: "FAIR" INDICATES FEW OR NO CLOUDS BELOW 12,000 FEET WITH NO
SIGNIFICANT WEATHER AND/OR OBSTRUCTIONS TO VISIBILITY.

ARZ001-003-010-029-061700-
NORTHWEST ARKANSAS

CITY           SKY/WX    TMP DP  RH WIND       PRES   REMARKS
FAYETTEVILLE   CLOUDY    41  38  89 N9G17     29.98R
FORT SMITH     CLOUDY    49  42  77 N7        29.98R
HARRISON       CLOUDY    41  39  93 NW9       29.95R
BENTONVILLE    CLOUDY    39  30  70 N12G21    30.00R
ROGERS         CLOUDY    38  35  89 N8        30.00R
SILOAM SPGS    CLOUDY    39  36  87 N14G21    30.00R
HIGHFILL       CLOUDY    39  36  89 N16       29.99R
SPRINGDALE     CLOUDY    41  37  87 N16G22    29.99R
$$

ARZ004-005-016-061700-
NORTH CENTRAL ARKANSAS

CITY           SKY/WX    TMP DP  RH WIND       PRES   REMARKS
BATESVILLE     MOSUNNY   46  39  76 NW8G17    29.92R
FLIPPIN        CLOUDY    45  36  70 NW8       29.92R
MTN HOME       PTSUNNY   43  39  86 N8        29.92R
$$

ARZ040-041-061700-
WEST CENTRAL ARKANSAS

CITY           SKY/WX    TMP DP  RH WIND       PRES   REMARKS
MENA           CLOUDY    50  45  81 N6        29.95R
MOUNT IDA      PTSUNNY   49  42  77 VRB7      29.92R
$$

ARZ009-017-025-026-028-061700-
NORTHEAST ARKANSAS

CITY           SKY/WX    TMP DP  RH WIND       PRES   REMARKS
CORNING        FAIR      48  43  81 N9        29.87R
JONESBORO      PTSUNNY   46  41  82 NW12G20   29.88R
NEWPORT        MOSUNNY   47  42  83 NW13      29.91R
WALNUT RIDGE   MOSUNNY   48  41  76 NW12      29.87R
BLYTHEVILLE    CLOUDY    47  44  90 NW12      29.86R
$$

ARZ022-023-033-042-044-061700-
CENTRAL ARKANSAS

CITY           SKY/WX    TMP DP  RH WIND       PRES   REMARKS
LITTLE ROCK    PTSUNNY   49  46  90 NW8       29.93R
N LITTLE ROCK    N/A     47  44  87 N6        29.96R
JACKSONVILLE   CLOUDY    48  44  84 NW12      29.92R
SEARCY         CLOUDY    47  43  86 N7G16     29.94R
HOT SPRINGS    CLOUDY    50  46  86 VRB3      29.94R
RUSSELLVILLE   CLOUDY    49  43  80 W7        29.94R
CLINTON        PTSUNNY   46  39  76 VRB7G16   29.91S
$$

ARZ036-061700-
EAST ARKANSAS

CITY           SKY/WX    TMP DP  RH WIND       PRES   REMARKS
WEST MEMPHIS   CLOUDY    45  45 100 NW9       29.87R
$$

ARZ050-053-066-070-073-061700-
SOUTHWEST ARKANSAS

CITY           SKY/WX    TMP DP  RH WIND       PRES   REMARKS
ARKADELPHIA    CLOUDY    51  47  86 NW5       29.96R
CAMDEN         CLOUDY    50  45  81 NW6       29.95R
TEXARKANA      CLOUDY    49  47  93 NW9       29.95R
EL DORADO      CLOUDY    49  47  93 W6        29.94R
DE QUEEN       CLOUDY    50  49  96 W3        29.94R
$$

ARZ056-057-069-061700-
SOUTHEAST ARKANSAS

CITY           SKY/WX    TMP DP  RH WIND       PRES   REMARKS
PINE BLUFF     CLOUDY    49  45  86 NW6       29.95R
STUTTGART      CLOUDY    48  43  81 NW10      29.94R
MONTICELLO     CLOUDY    49  45  86 NW7       29.94R

$$





USA.gov is the U.S. government's official web portal to all federal, state and local government web resources and services.